Tiempo cada hora Barszcze

Hoy, 4 Marzo, Jueves

Tiempo Temperatura Precipitaciones Viento Presión Humedad
00:00 0°C° 0 mm 3 mps 751 mmHg 89%
01:00 0°C° 0 mm 3 mps 751 mmHg 90%
02:00 0°C° 0 mm 3 mps 750 mmHg 91%
03:00 0°C° 0 mm 3 mps 749 mmHg 92%
04:00 0°C° 0 mm 3 mps 748 mmHg 93%
05:00 0°C° 0 mm 3 mps 747 mmHg 93%
06:00 0°C° 0 mm 3 mps 747 mmHg 94%
07:00 0°C° 0 mm 3 mps 747 mmHg 94%
08:00 -1°C° 0 mm 4 mps 746 mmHg 95%
09:00 0°C° 0 mm 4 mps 746 mmHg 92%
10:00 0°C° 0 mm 4 mps 746 mmHg 90%
11:00 +1°C° 0 mm 5 mps 746 mmHg 87%
12:00 +1°C° 0 mm 5 mps 746 mmHg 86%
13:00 +1°C° 0 mm 5 mps 746 mmHg 85%
14:00 +1°C° 0 mm 5 mps 746 mmHg 83%
15:00 +1°C° 0 mm 4 mps 746 mmHg 86%
16:00 0°C° 0 mm 4 mps 746 mmHg 89%
17:00 +1°C° 0 mm 3 mps 746 mmHg 92%
18:00 -1°C° 0.3 mm 4 mps 746 mmHg 92%
19:00 -2°C° 0.3 mm 4 mps 747 mmHg 93%
20:00 -2°C° 0.3 mm 4 mps 747 mmHg 93%
21:00 -2°C° 0.1 mm 3 mps 747 mmHg 91%
22:00 -2°C° 0.1 mm 3 mps 748 mmHg 89%
23:00 -2°C° 0.1 mm 2 mps 748 mmHg 86%

Mañana, 5 Marzo, Viernes

Tiempo Temperatura Precipitaciones Viento Presión Humedad
00:00 -2°C° 0 mm 3 mps 748 mmHg 85%
01:00 -4°C° 0 mm 3 mps 749 mmHg 85%
02:00 -4°C° 0 mm 3 mps 749 mmHg 84%
03:00 -4°C° 0 mm 3 mps 749 mmHg 83%
04:00 -5°C° 0 mm 3 mps 749 mmHg 83%
05:00 -5°C° 0 mm 3 mps 749 mmHg 82%
06:00 -5°C° 0 mm 3 mps 750 mmHg 79%
07:00 -4°C° 0 mm 3 mps 750 mmHg 77%
08:00 -4°C° 0 mm 3 mps 751 mmHg 74%
09:00 -3°C° 0 mm 4 mps 751 mmHg 65%
10:00 -2°C° 0 mm 5 mps 751 mmHg 57%
11:00 -2°C° 0 mm 6 mps 751 mmHg 49%
12:00 -2°C° 0 mm 6 mps 752 mmHg 46%
13:00 -2°C° 0 mm 6 mps 752 mmHg 44%
14:00 -2°C° 0 mm 6 mps 753 mmHg 42%
15:00 -1°C° 0 mm 5 mps 753 mmHg 41%
16:00 -1°C° 0 mm 4 mps 753 mmHg 40%
17:00 -2°C° 0 mm 4 mps 753 mmHg 39%
18:00 -2°C° 0 mm 3 mps 754 mmHg 45%
19:00 -2°C° 0 mm 3 mps 755 mmHg 51%
20:00 -4°C° 0 mm 3 mps 755 mmHg 57%
21:00 -4°C° 0 mm 3 mps 755 mmHg 60%
22:00 -4°C° 0 mm 3 mps 756 mmHg 62%
23:00 -4°C° 0 mm 4 mps 756 mmHg 65%

Pasado mañana, 6 Marzo, Sábado

Tiempo Temperatura Precipitaciones Viento Presión Humedad
00:00 -4°C° 0 mm 4 mps 757 mmHg 67%
01:00 -4°C° 0 mm 3 mps 757 mmHg 70%
02:00 -4°C° 0 mm 3 mps 757 mmHg 73%
03:00 -5°C° 0 mm 3 mps 757 mmHg 73%
04:00 -5°C° 0 mm 3 mps 757 mmHg 74%
05:00 -5°C° 0 mm 3 mps 758 mmHg 75%
06:00 -5°C° 0 mm 3 mps 758 mmHg 75%
07:00 -5°C° 0 mm 3 mps 758 mmHg 76%
08:00 -4°C° 0 mm 2 mps 759 mmHg 76%
09:00 -4°C° 0 mm 3 mps 759 mmHg 66%
10:00 -2°C° 0 mm 3 mps 759 mmHg 56%
11:00 -1°C° 0 mm 3 mps 759 mmHg 46%
12:00 -2°C° 0 mm 4 mps 759 mmHg 45%
13:00 -1°C° 0 mm 4 mps 759 mmHg 44%
14:00 0°C° 0 mm 4 mps 759 mmHg 44%
15:00 0°C° 0 mm 4 mps 758 mmHg 46%
16:00 0°C° 0 mm 4 mps 757 mmHg 49%
17:00 0°C° 0 mm 4 mps 757 mmHg 51%
18:00 -1°C° 0 mm 5 mps 756 mmHg 53%
19:00 -2°C° 0 mm 5 mps 756 mmHg 55%
20:00 -4°C° 0 mm 5 mps 755 mmHg 58%
21:00 -3°C° 0 mm 6 mps 754 mmHg 57%
22:00 -3°C° 0 mm 7 mps 754 mmHg 56%
23:00 -4°C° 0 mm 8 mps 753 mmHg 55%

7 Marzo, Domingo

Tiempo Temperatura Precipitaciones Viento Presión Humedad
00:00 -4°C° 0 mm 8 mps 752 mmHg 65%
01:00 -4°C° 0 mm 8 mps 752 mmHg 75%
02:00 -4°C° 0 mm 8 mps 751 mmHg 84%
03:00 -4°C° 0.2 mm 9 mps 750 mmHg 85%
04:00 -4°C° 0.2 mm 9 mps 749 mmHg 85%
05:00 -4°C° 0.2 mm 9 mps 748 mmHg 85%
06:00 -4°C° 0 mm 9 mps 748 mmHg 84%
07:00 -4°C° 0 mm 9 mps 748 mmHg 83%
08:00 -4°C° 0 mm 9 mps 748 mmHg 83%
09:00 -3°C° 0.1 mm 9 mps 748 mmHg 84%
10:00 -3°C° 0.1 mm 9 mps 748 mmHg 84%
11:00 -3°C° 0.1 mm 9 mps 748 mmHg 85%
12:00 -3°C° 0.4 mm 9 mps 748 mmHg 85%
13:00 -2°C° 0.4 mm 8 mps 748 mmHg 86%
14:00 -2°C° 0.4 mm 8 mps 748 mmHg 86%
15:00 -2°C° 0.4 mm 7 mps 748 mmHg 84%
16:00 -3°C° 0.4 mm 6 mps 748 mmHg 83%
17:00 -4°C° 0.4 mm 5 mps 748 mmHg 81%
18:00 -4°C° 0 mm 5 mps 748 mmHg 81%
19:00 -4°C° 0 mm 4 mps 749 mmHg 81%
20:00 -4°C° 0 mm 4 mps 749 mmHg 81%
21:00 -5°C° 0 mm 3 mps 749 mmHg 81%
22:00 -5°C° 0 mm 3 mps 750 mmHg 80%
23:00 -5°C° 0 mm 3 mps 750 mmHg 80%

8 Marzo, Lunes

Tiempo Temperatura Precipitaciones Viento Presión Humedad
00:00 -5°C° 0 mm 3 mps 750 mmHg 80%
01:00 -6°C° 0 mm 3 mps 750 mmHg 80%
02:00 -6°C° 0 mm 3 mps 750 mmHg 80%
03:00 -6°C° 0 mm 3 mps 751 mmHg 80%
04:00 -7°C° 0 mm 4 mps 751 mmHg 79%
05:00 -7°C° 0 mm 4 mps 751 mmHg 79%
06:00 -7°C° 0 mm 4 mps 751 mmHg 79%
07:00 -7°C° 0 mm 4 mps 752 mmHg 79%
08:00 -7°C° 0 mm 5 mps 752 mmHg 80%
09:00 -6°C° 0 mm 5 mps 752 mmHg 73%
10:00 -5°C° 0 mm 5 mps 753 mmHg 66%
11:00 -5°C° 0 mm 6 mps 753 mmHg 59%
12:00 -4°C° 0 mm 5 mps 753 mmHg 56%
13:00 -4°C° 0 mm 5 mps 754 mmHg 54%
14:00 -4°C° 0 mm 5 mps 754 mmHg 51%
15:00 -4°C° 0 mm 5 mps 754 mmHg 51%
16:00 -4°C° 0 mm 5 mps 755 mmHg 51%
17:00 -4°C° 0 mm 4 mps 755 mmHg 51%
18:00 -5°C° 0 mm 3 mps 755 mmHg 55%
19:00 -5°C° 0 mm 3 mps 756 mmHg 60%
20:00 -5°C° 0 mm 2 mps 756 mmHg 64%
21:00 -5°C° 0 mm 2 mps 757 mmHg 64%
22:00 -5°C° 0 mm 2 mps 757 mmHg 64%
23:00 -4°C° 0 mm 1 mps 758 mmHg 64%

9 Marzo, Martes

Tiempo Temperatura Precipitaciones Viento Presión Humedad
00:00 -4°C° 0 mm 1 mps 758 mmHg 65%
01:00 -4°C° 0 mm 1 mps 758 mmHg 65%
02:00 -4°C° 0 mm 1 mps 758 mmHg 65%
03:00 -4°C° 0 mm 1 mps 758 mmHg 65%
04:00 -4°C° 0 mm 1 mps 759 mmHg 65%
05:00 -4°C° 0 mm 1 mps 759 mmHg 65%
06:00 -4°C° 0 mm 1 mps 759 mmHg 64%
07:00 -4°C° 0 mm 1 mps 759 mmHg 63%
08:00 -4°C° 0 mm 1 mps 759 mmHg 62%
09:00 -4°C° 0 mm 1 mps 759 mmHg 56%
10:00 -5°C° 0 mm 2 mps 760 mmHg 50%
11:00 -4°C° 0 mm 2 mps 760 mmHg 44%
12:00 -3°C° 0 mm 2 mps 760 mmHg 41%
13:00 -3°C° 0 mm 2 mps 760 mmHg 38%
14:00 -2°C° 0 mm 2 mps 760 mmHg 35%
15:00 -2°C° 0 mm 3 mps 759 mmHg 35%
16:00 -2°C° 0 mm 3 mps 759 mmHg 36%
17:00 -2°C° 0 mm 3 mps 759 mmHg 37%
18:00 -4°C° 0 mm 3 mps 759 mmHg 41%
19:00 -4°C° 0 mm 2 mps 759 mmHg 45%
20:00 -5°C° 0 mm 2 mps 759 mmHg 49%
21:00 -6°C° 0 mm 3 mps 759 mmHg 49%
22:00 -6°C° 0 mm 3 mps 759 mmHg 50%
23:00 -6°C° 0 mm 3 mps 759 mmHg 51%
Mostrar más

Necesitamos Su Consentimiento

Meteoprog y nuestros Proveedores de Servicios pueden almacenar y acceder a sus datos personales como cookies, identificadores de dispositivo u otras tecnologías similares de su dispositivo y procesar dichos datos para personalizar contenido y anuncios, además de ofrecer funciones de redes sociales y analizar el tráfico.

  • Almacenar y/o acceder a información en su dispositivo

    Se puede almacenar o acceder a cookies, identificadores de dispositivo u otra información de su dispositivo para los fines anteriormente indicados.

  • Anuncios y contenido personalizados, medición de anuncios y contenido, percepciones del público, y desarrollo de productos

    Los anuncios y el contenido pueden personalizarse en base a su perfil. Se pueden añadir más datos para personalizar mejor los anuncios y contenidos. Se puede medir el rendimiento de los anuncios y contenidos. Se puede obtener la percepción sobre el público que ha visto los anuncios y contenidos. Dichos datos pueden usarse para desarrollar o mejorar la experiencia del usuario, sistemas y software.

Al hacer clic en ‘Estoy De Acuerdo’ usted permitirá el uso de las cookies, identificadores de dispositivo, balizas web u otras tecnologías similares indicadas. Su configuración puede cambiarse desde el navegador de su dispositivo.

Para ciertos fines, los intereses legítimos pueden ser considerados por encima del consentimiento. Puede leer más sobre ello en nuestra Política de Privacidad y Cookies.